Location: Distr�
(47.2228°N, 0.1107°W)
Time: 01:10:26
(UTC+00:00)

Daily predictions for brighter satellites

Satellite Brightness Start Highest point End
(mag) Time Altitude Azimuth Time Altitude Azimuth Time Altitude Azimuth
SeaSat 1 2.3 00:03:04 10° NNE 00:08:03 87° WNW 00:08:06 86° W
Cosmos 1680 Rocket 4.3 00:03:58 10° NW 00:08:33 38° W 00:08:33 38° W
Cosmos 1943 Rocket 2.0 00:09:25 76° SSE 00:09:44 79° ESE 00:15:22 10° NNE
USA 215 3.3 00:10:09 55° SSW 00:10:32 56° SW 00:16:58 10° WNW
ATLAS 2AS CENTAUR R/B 2.7 00:03:19 10° NW 00:10:37 68° WSW 00:11:46 58° S
Cosmos 864 Rocket 4.5 00:04:35 10° NNW 00:10:41 64° W 00:11:30 58° SW
Cosmos 2242 Rocket 4.0 00:11:36 56° NE 00:11:36 56° NE 00:15:25 10° NNE
Cosmos 1461 4.4 00:15:16 31° E 00:15:16 31° E 00:18:22 10° NE
Cosmos 2181 Rocket 4.3 00:14:49 47° WSW 00:16:04 55° WNW 00:22:08 10° N
Cosmos 1937 Rocket 3.5 00:18:25 64° W 00:18:45 66° WNW 00:23:54 10° NNE
EO 1 Del DPAF 4.3 00:16:17 10° NNE 00:18:53 41° NE 00:18:53 41° NE
EO 1 Delta rocket 4.1 00:22:19 61° ESE 00:22:44 64° ENE 00:28:04 10° N
SL-16 R/B 4.1 00:21:04 13° ESE 00:25:44 29° ENE 00:31:00 10° N
Cosmos 2297 4.0 00:26:28 51° WSW 00:27:35 61° WNW 00:33:14 10° NNE
Cosmos 2084 Rocket 3.8 00:24:17 10° NW 00:27:54 61° NNW 00:27:54 61° NNW
Okean 1-7 3.3 00:29:25 64° NNE 00:29:25 64° NNE 00:33:05 10° N
CZ-4C R/B 4.3 00:23:55 10° WNW 00:29:23 22° WSW 00:29:35 22° WSW
Gbstr 26 Del rocket 3.9 00:28:44 10° WNW 00:35:39 78° NNE 00:41:10 10° ESE
Okean 2 Rocket 4.4 00:32:32 10° N 00:36:30 32° ENE 00:37:10 30° E
Cosmos 1821 Rocket 3.9 00:32:44 10° N 00:39:10 82° W 00:40:28 59° S
Helios 1A 3.3 00:41:18 60° ENE 00:41:18 60° ENE 00:45:14 10° N
Okean 3 3.9 00:41:55 58° ENE 00:41:55 58° ENE 00:45:43 10° NNE
Cosmos 1656 Rocket 4.0 00:42:15 49° ESE 00:42:36 49° ESE 00:47:53 10° NE
ISS -0.9 00:48:19 12° ENE 00:48:19 12° ENE 00:48:39 10° ENE
Cosmos 2150 Rocket 4.3 00:45:19 54° SE 00:45:43 56° ESE 00:50:58 10° NNE
Helios 1B rocket 4.5 00:43:23 10° NE 00:46:20 19° E 00:46:30 19° E
Cosmos 1934 Rocket 4.0 00:44:39 10° N 00:50:51 72° E 00:52:36 48° SSE
Cosmos 44 4.2 00:45:48 10° NW 00:50:00 40° W 00:50:00 40° W
RESURS DK-1 3.0 00:48:11 10° NNW 00:52:16 51° ENE 00:52:35 49° ENE
Cosmos 1867 4.0 00:52:08 45° SE 00:52:21 45° ESE 00:57:33 10° NE
Cosmos 2082 Rocket 4.3 00:51:25 10° WNW 00:52:54 12° W 00:52:54 12° W
SL-24 R/B 4.2 00:54:10 79° SSE 00:54:28 90° ENE 00:59:00 10° NNW
Meteor 1-12 Rocket 4.2 00:49:32 10° NNW 00:55:29 80° W 00:56:29 62° SSW
CZ-2D R/B 3.3 00:52:04 10° NNE 00:56:56 32° E 00:58:21 28° ESE
ATLAS CENTAUR R/B 3.1 01:02:36 20° E 01:02:36 20° E 01:04:31 10° ENE
Cosmos 1300 Rocket 3.6 00:57:39 10° N 01:02:06 71° E 01:02:12 71° E
Cosmos 1535 Rocket 4.5 00:56:11 10° N 01:02:25 79° E 01:04:22 47° SSE
SL-27 R/B 3.8 01:04:20 10° NNW 01:06:27 36° N 01:06:27 36° N
Cosmos 2221 Rocket 3.8 01:08:51 58° ESE 01:09:10 60° E 01:13:41 10° NNE
Cosmos 468 4.4 01:04:11 10° NNW 01:09:27 70° WSW 01:09:51 67° SW
Meteor 1-13 Rocket 4.2 01:09:25 58° SW 01:10:23 71° WNW 01:15:57 10° N
USA 281 3.1 01:09:03 44° SSE 01:11:21 78° WSW 01:17:58 10° NNW
USA 81 4.2 01:08:22 10° N 01:13:39 71° E 01:14:57 50° SSE
Nadezhda 3 Rocket 4.3 01:13:48 44° WSW 01:15:21 54° WNW 01:21:29 10° N
CZ-4 R/B 3.8 01:17:27 10° N 01:22:22 71° WNW 01:23:00 62° WSW
Cosmos 1805 3.6 01:20:53 10° NNW 01:24:13 57° NW 01:24:13 57° NW
MOZ.5/SAFIR/RUBIN 5/SL-8 3.6 01:24:37 72° SSW 01:24:58 77° WSW 01:29:38 10° NNW
Cosmos 1125 Rocket 3.4 01:24:54 61° SSW 01:25:50 87° WNW 01:31:05 10° NNE
Cosmos 1766 3.2 01:22:31 10° N 01:26:23 82° NNE 01:26:23 82° NNE
Cosmos 1400 Rocket 3.8 01:25:52 10° N 01:29:51 44° ENE 01:31:01 35° ESE
Resurs 1-4 Rocket 2.3 01:26:02 10° NNE 01:31:15 62° ESE 01:32:44 44° SSE
Cosmos 2369 Rocket 2.8 01:31:09 36° WSW 01:32:53 48° NW 01:38:21 10° NNE
ADEOS II 3.5 01:29:00 10° NNE 01:33:38 31° E 01:36:10 21° SE
Meteor 1-23 Rocket 4.2 01:35:38 49° SSW 01:37:15 76° WNW 01:43:05 10° N
Cosmos 494 Rocket 4.1 01:35:13 10° NNW 01:40:15 51° WSW 01:40:39 49° WSW
Cosmos 1733 3.7 01:36:38 10° NNW 01:39:44 47° WNW 01:39:44 47° WNW
CZ-3B R/B 4.5 01:28:49 27° SSW 01:41:41 65° SE 01:47:35 10° ENE
Cosmos 1605 Rocket 3.9 01:37:51 10° NNW 01:44:03 74° W 01:46:26 40° S
Gblst 52 Del rocket 4.1 01:37:47 10° WNW 01:44:06 70° SSW 01:49:43 10° SE
Sich 1 Rocket 4.3 01:40:30 10° NNW 01:44:40 38° W 01:44:40 38° W
Lacrosse 5 3.6 01:45:07 19° SE 01:46:08 20° ESE 01:49:44 10° ENE
Cosmos 1470 3.4 01:45:26 10° N 01:49:16 53° ENE 01:50:26 37° SE
Cosmos 1378 Rocket 3.5 01:51:11 54° SSE 01:52:05 76° E 01:56:26 10° NNE
Cosmos 1461 4.2 01:51:36 29° W 01:53:10 38° NW 01:57:31 10° NNE
Cosmos 1943 Rocket 4.0 01:50:54 14° W 01:54:07 22° NW 01:58:29 10° N
BREEZE-M DEB (TANK) 4.3 01:53:34 24° SSE 01:55:35 30° ESE 02:05:34 10° ENE
Cosmos 724 4.5 01:56:07 38° SSW 01:58:34 70° ESE 02:04:48 10° NE
Cosmos 1607 4.2 01:55:38 34° WSW 01:58:35 67° NW 02:05:05 10° NE
Cosmos 1269 Rocket 3.9 01:53:34 10° NNW 01:58:54 84° WSW 02:01:40 29° SSE
Okean 1 Rocket 3.0 01:54:27 10° N 01:58:54 82° E 02:00:22 42° SSE
ATLAS 2AS CENTAUR R/B 4.5 01:56:51 10° WNW 01:59:10 13° W 01:59:10 13° W
Cosmos 2173 Rocket 4.4 01:55:02 10° N 02:01:06 60° ENE 02:06:41 13° SSE
IRS-1D 4.5 01:56:10 10° NNE 02:01:16 44° E 02:04:22 22° SSE
Cosmos 1726 2.3 01:59:50 10° N 02:03:34 66° E 02:04:34 43° SE
Aureole 2 4.3 02:00:44 10° NNW 02:03:37 64° ENE 02:03:37 64° ENE
Cosmos 44 Rocket 3.4 01:58:57 10° NW 02:04:14 85° NE 02:09:22 10° SE
COSMOS 2455 3.9 01:59:23 10° NNW 02:05:12 46° NE 02:10:57 10° ESE
Meteor 2-20 4.4 02:04:50 34° SSW 02:07:42 82° W 02:13:54 10° N
SL-16 R/B 2.6 02:06:09 32° SSW 02:08:58 58° WSW 02:15:10 10° NNW
Meteor 1-28 Rocket 4.2 02:07:32 19° SE 02:09:51 44° ENE 02:13:25 10° N
Cosmos 1842 3.3 02:10:36 53° WSW 02:11:03 58° WNW 02:14:53 10° N
Meteor 1-29 2.8 02:09:37 10° NNE 02:13:00 84° ESE 02:13:24 67° S
Cosmos 2151 Rocket 4.3 02:09:45 10° NNW 02:13:53 35° W 02:14:19 34° WSW
Okean 2 Rocket 4.2 02:10:47 10° NNW 02:14:28 27° W 02:14:31 27° W
NPP 3.6 02:10:19 10° N 02:15:42 73° WNW 02:18:04 34° SSW
Cosmos 1674 Rocket 3.9 02:14:49 42° WSW 02:15:53 52° WNW 02:20:16 10° N
Cosmos 2100 Rocket 4.0 02:10:17 10° N 02:16:35 82° E 02:21:53 15° S
Cosmos 2227 Rocket 3.8 02:12:23 10° NNW 02:17:33 35° NE 02:22:41 10° ESE
Okean 2 3.4 02:19:01 45° SW 02:20:08 69° W 02:24:19 10° N
Cosmos 1953 3.8 02:17:09 10° N 02:20:50 35° ENE 02:24:29 10° SE
Helios 1B rocket 3.0 02:17:50 10° N 02:21:47 44° WNW 02:22:49 36° WSW
Cosmos 2297 Rocket 3.3 02:16:25 10° NNW 02:21:54 46° NE 02:27:20 10° SE
ISS -3.2 02:21:15 37° WNW 02:22:15 55° NNW 02:25:36 10° ENE
Landsat 4 3.6 02:18:35 10° N 02:22:20 72° WNW 02:23:14 48° SW
Gbstr 26 Del rocket 4.0 02:16:45 10° WNW 02:22:26 38° SW 02:26:08 15° SSE
AQUA 3.8 02:17:48 10° N 02:22:34 72° WNW 02:24:31 35° SSW
DELTA 2 DEB (DPAF) 4.0 02:21:24 26° SSE 02:23:55 85° WSW 02:28:24 10° NNW
BREEZE-M R/B 3.9 02:21:29 18° W 02:24:38 48° SSW 02:32:55 10° SE
RESURS DK-1 4.4 02:27:06 10° WNW 02:28:26 15° WNW 02:28:26 15° WNW
ADEOS Rocket 3.5 02:23:36 10° SSE 02:30:48 86° ENE 02:38:34 10° NNW
UNK 4.5 02:31:50 30° WSW 02:32:38 32° W 02:36:47 10° NNW
Spot 1 4.4 02:30:01 11° SSE 02:34:20 74° ENE 02:39:07 10° NNW
COSMOS 2487 2.9 02:31:28 10° NW 02:34:28 38° W 02:34:28 38° W
CZ-2D R/B 2.8 02:31:58 10° N 02:37:03 41° WNW 02:39:40 25° WSW
ATLAS CENTAUR R/B 2.1 02:38:44 26° W 02:40:10 37° NW 02:43:45 10° NNE
NOSS 2-1 (C) 4.3 02:36:32 10° NW 02:41:30 58° SW 02:48:28 10° SSE
Cosmos 1727 Rocket 4.4 02:39:13 25° SW 02:42:40 50° WNW 02:48:50 10° N
ARIANE 5 R/B 3.7 02:39:27 10° NNE 02:44:21 40° E 02:49:09 10° SSE
Cosmos 1455 Rocket 3.1 02:40:59 10° N 02:45:21 80° E 02:49:31 11° SSE
NOSS 2-1 (D) 4.4 02:43:16 10° NW 02:48:13 52° SW 02:55:07 10° SSE
CZ-4C R/B 3.5 02:45:49 14° S 02:49:34 77° WSW 02:53:54 10° NNW
Cosmos 1758 3.7 02:46:53 10° NNW 02:50:49 47° W 02:52:44 26° SSW
In-Cosmos 22 4.2 02:48:04 19° SSW 02:52:19 87° WNW 02:57:56 10° N
Cosmos 2219 3.6 02:47:20 10° NNW 02:53:01 68° ENE 02:58:43 10° SE
KORONAS-FOTON 4.0 02:52:13 19° S 02:54:58 73° E 02:58:54 10° NNE
Meteor 2-11 Rocket 4.4 02:49:07 10° NNW 02:55:17 75° W 03:01:24 10° S
Cosmos 1707 3.3 02:56:07 27° SW 02:57:39 40° WNW 03:01:18 10° N
Cosmos 1674 2.7 02:56:38 19° S 02:59:18 83° E 03:03:10 10° N
Cosmos 1315 Rocket 2.9 02:57:53 10° NNW 03:01:45 53° W 03:04:35 17° S
USA 129 3.9 03:03:09 10° SE 03:05:21 29° ENE 03:07:17 10° N
CBERS-1 4.1 03:03:20 10° N 03:08:23 62° WNW 03:12:17 17° SSW
IDEFIX/ARIANE 42P 2.6 03:04:13 10° NNE 03:09:29 80° WNW 03:14:08 13° SSW
Timation 2 Rocket 3.9 03:03:49 10° NNW 03:09:51 87° ENE 03:15:51 10° SSE
Cosmos 2061 Rocket 4.0 03:03:57 10° NNW 03:10:12 69° W 03:16:30 10° S
Resurs 1-4 Rocket 3.6 03:06:41 10° N 03:10:38 22° WNW 03:13:50 13° WSW
Cosmos 1300 4.4 03:07:50 10° N 03:11:21 34° ENE 03:14:51 10° SE
TSX-5 4.3 03:09:33 10° NNW 03:12:45 52° ENE 03:16:25 10° SE
ADEOS II 2.7 03:08:31 10° N 03:13:25 40° WNW 03:17:06 17° SW
USA 276 3.6 03:14:03 17° S 03:15:41 26° SE 03:18:24 10° E
Cosmos 614 Rocket 3.9 03:10:37 10° NNW 03:15:43 85° WSW 03:20:50 10° SSE
Cosmos 1975 Rocket 3.4 03:13:30 18° SW 03:16:30 47° WNW 03:20:43 10° N
Cosmos 1908 3.2 03:12:42 10° NNW 03:16:34 66° W 03:20:24 10° S
Cosmos 1725 Rocket 4.0 03:11:07 10° NNW 03:17:22 67° W 03:23:31 10° S
Cosmos 2369 Rocket 4.5 03:16:08 10° WNW 03:18:25 12° NNW 03:20:44 10° N
Tianhe-1 2.1 03:18:37 21° SW 03:19:50 28° S 03:22:34 10° ESE
Meteor 1-16 Rocket 4.4 03:14:29 10° NNW 03:20:21 62° W 03:26:08 10° S
BREEZE-M DEB (TANK) 3.3 03:19:52 14° SSW 03:21:46 22° SSE 03:23:41 10° E
Cosmos 407 Rocket 4.1 03:17:40 10° NNW 03:23:00 63° ENE 03:28:17 10° SE
SL-14 R/B 3.9 03:20:57 10° S 03:24:45 57° E 03:28:36 10° NNE
Cosmos 1656 3.6 03:20:47 13° SSW 03:25:41 88° WNW 03:31:14 10° NNE
Lacrosse 5 1.9 03:24:19 15° SW 03:28:31 89° WNW 03:33:39 10° NE
SL-08 R/B 3.3 03:24:04 10° S 03:28:48 70° WSW 03:33:30 10° NNW
IRS-1C 4.2 03:29:16 10° N 03:34:33 64° WNW 03:39:49 10° SSW
Cosmos 2233 Rocket 4.0 03:30:33 10° NNW 03:36:47 73° W 03:42:55 10° S
Cosmos 2016 Rocket 4.5 03:31:42 10° NNW 03:37:31 41° W 03:43:16 10° SSW
Cosmos 2251 Rocket 3.9 03:33:18 10° NW 03:38:14 42° WSW 03:43:08 10° S
MSX 4.0 03:35:20 10° N 03:41:03 64° WNW 03:46:44 10° SSW
CZ-4B R/B 3.6 03:37:11 10° N 03:42:00 61° WNW 03:46:56 10° SSW
Iridium 2 3.7 03:41:05 10° SSW 03:44:51 67° W 03:48:39 10° N
Cosmos 1697 Rocket 2.9 03:43:21 10° SSW 03:48:56 75° ESE 03:54:34 10° NNE
COSMOS 2455 3.3 03:45:33 10° NW 03:51:03 38° WSW 03:56:32 10° S
Cosmos 1626 2.6 03:48:40 10° SSW 03:52:11 42° WNW 03:55:44 10° N
PAYLOAD A 4.0 03:47:57 10° NNE 03:52:48 78° ESE 03:57:31 10° S
GP-B 4.1 03:53:02 10° NNW 03:56:51 29° WNW 04:00:40 10° SW
Cosmos 1953 3.8 03:54:03 10° NW 03:56:58 20° W 03:59:52 10° SW
APEX 3.7 03:52:57 10° NNW 03:57:02 90° SW 04:02:11 10° SSE
Cosmos 1980 Rocket 3.2 03:52:24 10° S 03:57:50 48° ESE 04:03:16 10° NE
Cosmos 304 Rocket 3.8 03:53:34 10° SSW 03:58:20 78° WNW 04:03:10 10° NNE
Cosmos 2369 4.1 03:52:47 10° SSW 03:58:27 69° ESE 04:04:10 10° NNE
CZ-2C R/B 2.6 03:53:31 10° NNE 03:58:34 82° ESE 04:03:43 10° SSW
ISS -2.3 03:56:17 10° WNW 03:59:28 37° N 04:02:39 10° ENE
Cosmos 2227 Rocket 2.5 03:56:23 10° NW 04:01:43 44° WSW 04:07:00 10° S
Timation 1 Rocket 4.4 03:56:07 10° NW 04:02:01 63° WSW 04:07:54 10° SSE
Meteor 2-5 Rocket 3.8 03:57:41 10° SSW 04:03:28 82° W 04:09:12 10° N
Cosmos 2297 Rocket 2.9 04:00:48 10° NW 04:05:46 32° WSW 04:10:41 10° SSW
USA 234 4.1 03:59:45 10° ENE 04:05:59 44° SE 04:12:10 10° SSW
